Home > Time Zones > World Clock > Weather > France > Pau > Past weeks

Flag for France Weather past 2 weeks in Pau, France

Now
45 °F

Light rain. Overcast.


Feels Like: 37 °F
Forecast: 30 / 52 °F
Wind: 16 mph from Northwest

Location: Pau Airport

Current Time: Feb 27, 2015 at 5:35:23 AM

Latest Report: Feb 27, 2015 at 5:00 AM


Visibility: N/A

Pressure: 30.18 "Hg

Humidity: 87%

Dew point: 41 °F

Location of PauLocation

Historic Weather in Pau — Graph

°F

Pau temperature yesterday

Maximum temperature yesterday: 52 °F (at 11:00 AM)
Minimum temperature yesterday: 48 °F (at 5:30 AM)
Average temperature yesterday: 50 °F

Past Weeks' High & Low Weather Summary

 TemperatureHumidityPressure
High64 °F (Feb 20, 2:00 PM)100% (Feb 15, 3:30 AM)30.66 "Hg (Feb 15, 3:30 AM)
Low32 °F (Feb 19, 3:30 AM)30% (Feb 13, 2:00 PM)29.68 "Hg (Feb 21, 4:00 AM)
Average46 °F83%30.11 "Hg
* Reported Feb 12 4:30 AM — Feb 27 4:00 AM, Pau, Weather by CustomWeather, © 2015

Note: Actual official high and low records may vary slightly from our data, if they occured in-between our weather recording intervals... More about our weather records

Advertising

Pau weather history for previous 24 hours

 ConditionsComfort  
Time TempWeatherWind HumidityBarometerVisibility
4:00 AM
Fri, Feb 27
46 °FPartly cloudy.10 mph87%30.15 "HgN/A
3:30 AM46 °FOvercast.13 mph87%30.15 "HgN/A
3:00 AM46 °FPartly cloudy.20 mph87%30.15 "HgN/A
2:30 AM48 °FDrizzle. Mostly cloudy.15 mph94%30.15 "HgN/A
2:00 AM48 °FPartly cloudy.15 mph94%30.12 "HgN/A
1:30 AM48 °FPartly cloudy.18 mph94%30.12 "Hg5 mi
1:00 AM50 °FMostly cloudy.18 mph94%30.12 "HgN/A
12:30 AM52 °FPassing clouds.25 mph94%30.09 "HgN/A
12:00 AM52 °FLight rain. Fog.13 mph100%30.07 "Hg3 mi
11:30 PM
Thu, Feb 26
52 °FLight rain. Mostly cloudy.14 mph100%30.07 "HgN/A
11:00 PM52 °FLight rain. Low clouds.13 mph100%30.09 "Hg6 mi
10:30 PM52 °FLight rain. Low clouds.12 mph94%30.09 "Hg4 mi
10:00 PM50 °FLight rain. Low clouds.10 mph100%30.09 "Hg4 mi
9:30 PM50 °FRain. Fog.10 mph100%30.09 "Hg2 mi
9:00 PM50 °FLight rain. Fog.12 mph100%30.09 "Hg2 mi
8:30 PM50 °FDrizzle. Fog.10 mph100%30.12 "Hg2 mi
8:00 PM50 °FDrizzle. Fog.9 mph100%30.12 "Hg2 mi
7:30 PM50 °FLight rain. Fog.8 mph100%30.12 "Hg2 mi
7:00 PM50 °FDrizzle. Low clouds.8 mph100%30.15 "Hg4 mi
6:30 PM50 °FDrizzle. Mostly cloudy.9 mph100%30.15 "HgN/A
6:00 PM50 °FLight rain. Low clouds.12 mph100%30.15 "HgN/A
5:30 PM52 °FDrizzle. Low clouds.13 mph94%30.15 "HgN/A
5:00 PM52 °FDrizzle. Mostly cloudy.13 mph94%30.15 "Hg5 mi
4:30 PM52 °FLight rain. Mostly cloudy.13 mph94%30.18 "HgN/A
4:00 PM52 °FDrizzle. Mostly cloudy.12 mph94%30.18 "Hg5 mi
3:30 PM52 °FPartly sunny.10 mph94%30.18 "HgN/A
3:00 PM52 °FBroken clouds.12 mph94%30.21 "HgN/A
2:30 PM52 °FBroken clouds.15 mph88%30.21 "HgN/A
2:00 PM52 °FLight rain. Fog.10 mph94%30.21 "Hg1 mi
1:30 PM52 °FDrizzle. Fog.20 mph94%30.24 "Hg2 mi
1:00 PM52 °FLow clouds.16 mph94%30.24 "HgN/A
12:30 PM52 °FLight rain. Fog.16 mph94%30.24 "Hg3 mi
12:00 PM52 °FLight rain. Low clouds.12 mph100%30.24 "HgN/A
11:30 AM52 °FDrizzle. Low clouds.12 mph100%30.24 "Hg4 mi
11:00 AM52 °FLight rain. Low clouds.12 mph94%30.24 "Hg6 mi
10:30 AM50 °FLight rain. Mostly cloudy.10 mph100%30.24 "Hg5 mi
10:00 AM50 °FDrizzle. Mostly cloudy.10 mph100%30.27 "Hg4 mi
9:30 AM50 °FLight rain. Mostly cloudy.8 mph100%30.24 "Hg4 mi
9:00 AM50 °FLight rain. Fog.6 mph100%30.27 "Hg2 mi
8:30 AM50 °FLight rain. Fog.5 mph100%30.24 "Hg2 mi
8:00 AM48 °FLight rain. Fog.6 mph100%30.24 "Hg2 mi
7:00 AM48 °FDrizzle. Fog.6 mph100%30.24 "Hg2 mi
6:30 AM48 °FDrizzle. Fog.5 mph100%30.27 "Hg2 mi
6:00 AM48 °FDrizzle. Fog.6 mph100%30.27 "Hg2 mi
5:30 AM48 °FDrizzle. Mostly cloudy.5 mph100%30.27 "Hg4 mi
Weather by CustomWeather, © 2015

See weather overviewHow to use our weather pages